Joliet, IL

1:51 PM CDT on September 24, 2017 (GMT -0500)
Joliet Regional

Weather History for KJOT - November, 2012

Change the Weather History Date:

Saturday, November 10, 2012

  Actual Average (KARR) Record (KARR)
Temperature  
Mean Temperature 59 °F -  
Max Temperature 68 °F 47 °F 71 °F (2010)
Min Temperature 50 °F 29 °F 19 °F (2007)
Degree Days  
Heating Degree Days 6    
Growing Degree Days 9 (Base 50)    
Moisture  
Dew Point 50 °F    
Average Humidity 71    
Maximum Humidity 90    
Minimum Humidity 51    
Precipitation  
Precipitation 0.09 in - - ()
Sea Level Pressure  
Sea Level Pressure 29.94 in    
Wind  
Wind Speed 8 mph (SSE)    
Max Wind Speed 20 mph    
Max Gust Speed 32 mph    
Visibility 10 miles    
Events Rain , Thunderstorm    
Averages and records for this station are not official NWS values.
T = Trace of Precipitation, MM = Missing Value Source: NWS Daily Summary

Daily Weather History Graph

Daily Weather History Graph

Search for Another Location

Airport or City:

Trip Planner

Search our weather history database for the weather conditions in past years. The results will help you decide how hot, cold, wet, or windy it might be!

Date:

Astronomy

Nov. 10, 2012 Rise Set
Actual Time 6:35 AM CST 4:36 PM CST
Civil Twilight 6:06 AM CST 5:06 PM CST
Nautical Twilight 5:33 AM CST 5:39 PM CST
Astronomical Twilight 5:00 AM CST 6:12 PM CST
Moon 2:38 AM CST (11/10) 2:25 PM CST (11/10)
Length of Visible Light 10h 59m
Length of Day
10h 00m
Waning Crescent, 14% of the Moon is Illuminated
Nov 10
Waning Crescent
Nov 13
New
Nov 20
First Quarter
Nov 28
Full
Dec 6
Last Quarter

Hourly Weather History & Observations

Time (CST) Temp. Dew Point Humidity Pressure Visibility Wind Dir Wind Speed Gust Speed Precip Events Conditions
12:15 AM 50.2 °F 44.6 °F 81% 29.98 in 10.0 mi SE 4.6 mph - N/A   Mostly Cloudy
12:35 AM 50.4 °F 44.6 °F 81% 29.99 in 10.0 mi SE 4.6 mph - N/A   Mostly Cloudy
12:55 AM 50.9 °F 45.0 °F 80% 29.98 in 10.0 mi SE 5.8 mph - N/A   Overcast
1:15 AM 51.6 °F 45.3 °F 79% 29.98 in 10.0 mi SE 4.6 mph - N/A   Overcast
1:35 AM 51.8 °F 45.5 °F 79% 29.98 in 10.0 mi ESE 5.8 mph - N/A   Overcast
1:55 AM 51.8 °F 45.5 °F 79% 29.99 in 10.0 mi SE 5.8 mph - N/A   Overcast
2:15 AM 51.6 °F 45.9 °F 81% 29.99 in 10.0 mi ESE 4.6 mph - N/A   Overcast
2:35 AM 50.9 °F 46.2 °F 84% 29.98 in 10.0 mi ESE 5.8 mph - N/A   Mostly Cloudy
2:55 AM 50.9 °F 46.4 °F 85% 29.97 in 10.0 mi ESE 5.8 mph - N/A   Mostly Cloudy
3:15 AM 50.5 °F 46.6 °F 86% 29.98 in 10.0 mi ESE 4.6 mph - N/A   Scattered Clouds
3:35 AM 50.9 °F 47.3 °F 87% 29.98 in 10.0 mi SE 4.6 mph - N/A   Mostly Cloudy
4:15 AM 52.0 °F 49.1 °F 90% 29.97 in 7.0 mi SE 4.6 mph - N/A   Scattered Clouds
4:35 AM 52.7 °F 49.3 °F 88% 29.98 in 7.0 mi SE 5.8 mph - N/A   Scattered Clouds
4:55 AM 52.5 °F 49.1 °F 88% 29.98 in 10.0 mi ESE 5.8 mph - N/A   Scattered Clouds
5:15 AM 51.1 °F 48.4 °F 90% 29.98 in 7.0 mi SE 5.8 mph - N/A   Scattered Clouds
5:35 AM 51.4 °F 48.6 °F 90% 29.98 in 7.0 mi SE 6.9 mph - N/A   Scattered Clouds
5:55 AM 52.0 °F 48.7 °F 89% 29.97 in 10.0 mi ESE 6.9 mph - N/A   Mostly Cloudy
6:15 AM 51.3 °F 48.4 °F 90% 29.97 in 10.0 mi ESE 5.8 mph - N/A   Scattered Clouds
6:35 AM 50.9 °F 48.2 °F 90% 29.97 in 7.0 mi SE 4.6 mph - N/A   Clear
6:55 AM 51.3 °F 48.4 °F 90% 29.98 in 7.0 mi SE 5.8 mph - N/A   Clear
7:15 AM 52.3 °F 48.7 °F 88% 29.97 in 10.0 mi SE 6.9 mph - N/A   Mostly Cloudy
7:35 AM 52.7 °F 48.9 °F 87% 29.98 in 10.0 mi SE 8.1 mph - N/A   Mostly Cloudy
7:55 AM 53.1 °F 48.7 °F 85% 29.98 in 10.0 mi SE 6.9 mph - N/A   Mostly Cloudy
8:15 AM 54.0 °F 48.7 °F 82% 29.98 in 10.0 mi SE 4.6 mph - N/A   Scattered Clouds
8:35 AM 55.0 °F 48.9 °F 80% 29.99 in 10.0 mi SSE 5.8 mph - N/A   Mostly Cloudy
8:55 AM 55.4 °F 48.2 °F 77% 29.98 in 10.0 mi SSE 6.9 mph - N/A   Mostly Cloudy
9:15 AM 58.1 °F 48.7 °F 71% 29.97 in 10.0 mi SSE 8.1 mph - N/A   Scattered Clouds
9:35 AM 59.4 °F 48.6 °F 67% 29.96 in 10.0 mi SSE 11.5 mph 18.4 mph N/A   Clear
9:55 AM 61.3 °F 49.1 °F 64% 29.97 in 10.0 mi SSE 13.8 mph 19.6 mph N/A   Clear
10:15 AM 61.5 °F 48.7 °F 63% 29.96 in 10.0 mi South 11.5 mph 23.0 mph N/A   Scattered Clouds
10:35 AM 63.3 °F 49.3 °F 60% 29.95 in 10.0 mi South 10.4 mph 16.1 mph N/A   Scattered Clouds
10:55 AM 64.2 °F 50.4 °F 61% 29.94 in 10.0 mi SSE 9.2 mph 17.3 mph N/A   Scattered Clouds
11:15 AM 64.4 °F 50.0 °F 59% 29.93 in 10.0 mi South 6.9 mph - N/A Thunderstorm Scattered Clouds
11:35 AM 64.2 °F 50.4 °F 61% 29.91 in 10.0 mi South 11.5 mph 18.4 mph N/A   Scattered Clouds
11:55 AM 64.6 °F 50.5 °F 60% 29.92 in 10.0 mi South 9.2 mph 19.6 mph N/A   Mostly Cloudy
12:15 PM 65.5 °F 51.3 °F 60% 29.92 in 10.0 mi South 6.9 mph - N/A   Mostly Cloudy
12:35 PM 65.1 °F 51.8 °F 62% 29.93 in 10.0 mi South 12.7 mph 17.3 mph N/A Thunderstorm Mostly Cloudy
12:55 PM 64.6 °F 51.8 °F 63% 29.92 in 10.0 mi SSE 5.8 mph - N/A Thunderstorm Thunderstorm
1:15 PM 59.7 °F 55.6 °F 86% 29.85 in 5.0 mi ESE 11.5 mph 21.9 mph 0.09 in Rain , Thunderstorm Thunderstorms and Rain
1:35 PM 59.9 °F 55.4 °F 85% 29.88 in 10.0 mi ESE 8.1 mph - 0.09 in Thunderstorm Thunderstorm
1:55 PM 61.2 °F 56.3 °F 84% 29.86 in 10.0 mi ESE 9.2 mph - 0.09 in   Clear
2:15 PM 64.4 °F 56.8 °F 76% 29.86 in 10.0 mi SE 9.2 mph - N/A Rain Light Rain
2:35 PM 65.8 °F 55.9 °F 70% 29.86 in 10.0 mi SE 10.4 mph 16.1 mph N/A   Clear
2:55 PM 66.9 °F 55.9 °F 68% 29.88 in 10.0 mi South 11.5 mph 19.6 mph N/A   Clear
3:15 PM 68.5 °F 55.2 °F 62% 29.89 in 10.0 mi SSE 11.5 mph 17.3 mph N/A   Clear
3:35 PM 67.6 °F 55.0 °F 64% 29.89 in 10.0 mi SSE 11.5 mph - N/A   Clear
3:55 PM 67.6 °F 54.0 °F 61% 29.89 in 10.0 mi SSE 13.8 mph 18.4 mph N/A   Clear
4:15 PM 67.3 °F 53.6 °F 61% 29.89 in 10.0 mi SE 9.2 mph - N/A   Clear
4:35 PM 66.4 °F 52.7 °F 61% 29.89 in 10.0 mi SSE 6.9 mph - N/A   Clear
4:55 PM 66.4 °F 51.1 °F 58% 29.90 in 10.0 mi SSE 11.5 mph 16.1 mph N/A   Clear
5:15 PM 66.2 °F 50.2 °F 56% 29.91 in 10.0 mi SSE 9.2 mph - N/A   Clear
5:35 PM 66.2 °F 50.0 °F 56% 29.92 in 10.0 mi SSE 11.5 mph 20.7 mph N/A   Clear
5:55 PM 66.2 °F 47.7 °F 51% 29.92 in 10.0 mi South 10.4 mph 20.7 mph N/A   Clear
6:15 PM 65.1 °F 47.3 °F 52% 29.92 in 10.0 mi SSE 15.0 mph 19.6 mph N/A   Clear
6:35 PM 64.9 °F 47.5 °F 53% 29.92 in 10.0 mi SSE 8.1 mph 18.4 mph N/A   Clear
6:55 PM 64.4 °F 48.2 °F 56% 29.92 in 10.0 mi SSE 17.3 mph 24.2 mph N/A   Clear
7:15 PM 64.0 °F 48.4 °F 57% 29.92 in 10.0 mi SSE 15.0 mph 20.7 mph N/A   Clear
7:35 PM 63.1 °F 49.1 °F 60% 29.91 in 10.0 mi SSE 15.0 mph 20.7 mph N/A   Clear
7:55 PM 62.8 °F 49.3 °F 61% 29.92 in 10.0 mi South 13.8 mph 25.3 mph N/A   Clear
8:15 PM 62.8 °F 49.8 °F 63% 29.92 in 10.0 mi SSE 16.1 mph 27.6 mph N/A   Clear
8:35 PM 62.6 °F 50.0 °F 63% 29.92 in 10.0 mi South 15.0 mph 25.3 mph N/A   Clear
8:55 PM 62.1 °F 50.4 °F 65% 29.93 in 10.0 mi South 17.3 mph 26.5 mph N/A   Clear
9:15 PM 62.6 °F 50.4 °F 64% 29.92 in 10.0 mi SSE 19.6 mph 23.0 mph N/A   Clear
9:35 PM 62.8 °F 50.4 °F 64% 29.91 in 10.0 mi SSE 17.3 mph 28.8 mph N/A   Clear
9:55 PM 62.4 °F 50.0 °F 64% 29.91 in 10.0 mi South 18.4 mph 25.3 mph N/A   Clear
10:15 PM 61.7 °F 49.3 °F 64% 29.91 in 10.0 mi South 18.4 mph 25.3 mph N/A   Clear
10:35 PM 62.6 °F 48.2 °F 59% 29.91 in 10.0 mi SSE 17.3 mph 32.2 mph N/A   Clear
10:55 PM 61.9 °F 48.2 °F 61% 29.91 in 10.0 mi South 15.0 mph 25.3 mph N/A   Clear
11:15 PM 61.9 °F 48.0 °F 60% 29.92 in 10.0 mi South 16.1 mph 31.1 mph N/A   Clear
11:35 PM 60.8 °F 47.7 °F 62% 29.92 in 10.0 mi South 16.1 mph 20.7 mph N/A   Clear
11:55 PM 60.8 °F 47.3 °F 61% 29.92 in 10.0 mi SSE 17.3 mph 24.2 mph N/A   Clear